This demonstration page uses our WeatherBlox Daily Observations layout. Learn more.

Hourly Observations for December 22, 2016

Temp ( °F °C ) Dew Point ( °F °C ) Humidity (%) Winds ( mph kmh ) Pressure ( in mb ) Visibility ( mi km ) Precip ( " mm )
12:15 am 00:15 Clear 28 -2.4 17 -8.1 65 65 W 6 9 30.5 1033 10 16.0934 0 0
12:35 am 00:35 Clear 25 -4.1 16 -9 69 69 W 6 9 30.53 1034 10 16.0934 0 0
12:55 am 00:55 Clear 27 -2.8 17 -8.3 66 66 W 7 11 30.5 1033 10 16.0934 0 0
1:15 am 01:15 Clear 25 -3.7 16 -8.9 68 68 NW 6 9 30.53 1034 10 16.0934 0 0
1:35 am 01:35 Clear 24 -4.5 16 -9.1 71 71 W 6 9 30.53 1034 10 16.0934 0 0
1:55 am 01:55 Clear 24 -4.2 17 -8.6 72 72 WSW 5 7 30.56 1035 10 16.0934 0 0
2:15 am 02:15 Clear 26 -3.6 17 -8.5 69 69 WNW 3 6 30.53 1034 10 16.0934 0 0
2:35 am 02:35 Clear 23 -4.8 15 -9.5 70 70 Calm 30.56 1035 10 16.0934 0 0
2:55 am 02:55 Clear 23 -5.1 15 -9.3 73 73 W 6 9 30.56 1035 10 16.0934 0 0
3:15 am 03:15 Clear 24 -4.6 16 -9 72 72 W 5 7 30.56 1035 10 16.0934 0 0
3:35 am 03:35 Clear 24 -4.5 16 -8.9 72 72 WNW 6 9 30.56 1035 10 16.0934 0 0
3:55 am 03:55 Clear 23 -4.9 15 -9.4 71 71 WNW 5 7 30.56 1035 10 16.0934 0 0
4:15 am 04:15 Clear 21 -5.9 15 -9.7 75 75 Calm 30.53 1034 10 16.0934 0 0
4:35 am 04:35 Clear 21 -6.3 15 -9.6 78 78 Calm 30.56 1035 10 16.0934 0 0
4:55 am 04:55 Clear 17 -8.1 11 -11.7 76 76 Calm 30.56 1035 10 16.0934 0 0
5:15 am 05:15 Clear 18 -7.8 13 -10.8 79 79 Calm 30.56 1035 10 16.0934 0 0
5:35 am 05:35 Clear 17 -8.3 12 -11.2 80 80 WSW 5 7 30.56 1035 10 16.0934 0 0
5:55 am 05:55 Clear 17 -8.5 12 -11.3 80 80 W 5 7 30.56 1035 10 16.0934 0 0
6:15 am 06:15 Clear 17 -8.2 13 -10.8 82 82 WSW 7 11 30.56 1035 10 16.0934 0 0
6:35 am 06:35 Clear 20 -6.6 15 -9.7 79 79 SW 3 6 30.56 1035 10 16.0934 0 0
6:55 am 06:55 Clear 20 -6.9 14 -10 79 79 WSW 3 6 30.56 1035 10 16.0934 0 0
7:15 am 07:15 Clear 20 -6.7 14 -10.1 77 77 Calm 30.56 1035 10 16.0934 0 0
7:35 am 07:35 Clear 18 -7.6 13 -10.6 79 79 Calm 30.56 1035 10 16.0934 0 0
7:55 am 07:55 Clear 18 -7.6 13 -10.3 81 81 Calm 30.56 1035 10 16.0934 0 0
8:15 am 08:15 Sunny 22 -5.6 16 -8.9 78 78 SW 3 6 30.53 1034 10 16.0934 0 0
8:35 am 08:35 Sunny 21 -5.9 16 -8.8 80 80 Calm 30.53 1034 10 16.0934 0 0
8:55 am 08:55 Sunny 24 -4.6 17 -8.1 77 77 Calm 30.53 1034 10 16.0934 0 0
9:15 am 09:15 Sunny 26 -3.4 18 -7.7 72 72 Calm 30.53 1034 10 16.0934 0 0
9:35 am 09:35 Sunny 29 -1.9 19 -7 68 68 SW 5 7 30.5 1033 10 16.0934 0 0
9:55 am 09:55 Sunny 31 -0.6 20 -6.7 64 64 SW 3 6 30.5 1033 10 16.0934 0 0
10:15 am 10:15 Sunny 32 0 20 -6.6 62 62 SW 6 9 30.48 1032 10 16.0934 0 0
10:35 am 10:35 Sunny 33 0.5 19 -7.1 57 57 SW 6 9 30.48 1032 10 16.0934 0 0
10:55 am 10:55 Sunny 36 2.1 19 -7.1 51 51 SW 7 11 30.48 1032 10 16.0934 0 0
11:15 am 11:15 Sunny 37 3 18 -7.7 46 46 SW 9 15 30.45 1031 10 16.0934 0 0
11:35 am 11:35 Sunny 38 3.6 17 -8.1 42 42 SW 9 15 30.45 1031 10 16.0934 0 0
11:55 am 11:55 Sunny 40 4.3 17 -8.1 40 40 SW 12 19 30.42 1030 10 16.0934 0 0
12:15 pm 12:15 Sunny 41 5.1 17 -8.1 38 38 SW 14 22 30.42 1030 10 16.0934 0 0
12:35 pm 12:35 Sunny 41 5.1 18 -8 39 39 SW 14 22 30.39 1029 10 16.0934 0 0
12:55 pm 12:55 Sunny 42 5.4 18 -7.8 38 38 SSW 14 22 30.33 1027 10 16.0934 0 0
1:15 pm 13:15 Sunny 42 5.5 17 -8.1 37 37 SSW 13 20 30.33 1027 10 16.0934 0 0
1:35 pm 13:35 Sunny 43 6 18 -8 36 36 SSW 15 24 30.33 1027 10 16.0934 0 0
1:55 pm 13:55 Sunny 44 6.4 17 -8.1 35 35 SSW 12 19 30.3 1026 10 16.0934 0 0
2:15 pm 14:15 Sunny 44 6.7 17 -8.5 33 33 SSW 13 20 30.3 1026 10 16.0934 0 0
2:35 pm 14:35 Sunny 44 6.8 17 -8.6 33 33 SSW 14 22 30.3 1026 10 16.0934 0 0
2:55 pm 14:55 Sunny 45 7 17 -8.5 33 33 SSW 15 24 30.3 1026 10 16.0934 0 0
3:15 pm 15:15 Sunny 44 6.9 17 -8.6 32 32 SSW 14 22 30.3 1026 10 16.0934 0 0
3:35 pm 15:35 Sunny 45 7 16 -8.9 32 32 SSW 13 20 30.27 1025 10 16.0934 0 0
3:55 pm 15:55 Sunny 44 6.7 16 -8.7 33 33 SSW 15 24 30.27 1025 10 16.0934 0 0
4:15 pm 16:15 Sunny 43 6.3 17 -8.5 34 34 SSW 13 20 30.27 1025 10 16.0934 0 0
4:35 pm 16:35 Sunny 42 5.8 17 -8.6 35 35 S 10 17 30.27 1025 10 16.0934 0 0
4:55 pm 16:55 Sunny 41 5.1 17 -8.1 38 38 S 9 15 30.27 1025 10 16.0934 0 0
5:15 pm 17:15 Clear 40 4.7 17 -8.3 39 39 S 9 15 30.3 1026 10 16.0934 0 0
5:35 pm 17:35 Clear 39 4.1 18 -8 41 41 S 9 15 30.3 1026 10 16.0934 0 0
5:55 pm 17:55 Mostly Cloudy 39 4.1 18 -7.6 43 43 S 9 15 30.3 1026 10 16.0934 0 0
6:15 pm 18:15 Cloudy 39 3.7 19 -7.5 44 44 S 8 13 30.3 1026 10 16.0934 0 0
6:35 pm 18:35 Cloudy 39 4.1 19 -7.5 43 43 SSW 12 19 30.3 1026 10 16.0934 0 0
6:55 pm 18:55 Cloudy 39 4 24 -4.4 55 55 SW 18 30 30.3 1026 10 16.0934 0 0
7:15 pm 19:15 Cloudy 38 3.4 28 -2.5 66 66 SW 8 13 30.27 1025 10 16.0934 0 0
7:35 pm 19:35 Cloudy with Drizzle 37 2.7 30 -1 77 77 SSW 13 20 30.27 1025 10 16.0934 0 0
7:55 pm 19:55 Cloudy 36 2.2 30 -1.2 78 78 SSW 12 19 30.27 1025 10 16.0934 0 0
8:15 pm 20:15 Cloudy 36 2 30 -1.3 79 79 SSW 12 19 30.24 1024 10 16.0934 0 0
8:35 pm 20:35 Cloudy 35 1.6 30 -1.3 81 81 S 12 19 30.24 1024 10 16.0934 0 0
8:55 pm 20:55 Cloudy 35 1.5 29 -1.5 81 81 S 8 13 30.21 1023 10 16.0934 0 0
9:15 pm 21:15 Cloudy 34 1.3 29 -1.6 81 81 S 8 13 30.21 1023 10 16.0934 0 0
9:35 pm 21:35 Cloudy with Drizzle 34 1.1 28 -2 80 80 S 9 15 30.21 1023 10 16.0934 0 0
9:55 pm 21:55 Cloudy with Light Snow 33 0.5 30 -1.2 89 89 SSW 12 19 30.24 1024 7 11.26538 0 0
10:15 pm 22:15 Cloudy 32 0.2 30 -1 92 92 S 10 17 30.24 1024 10 16.0934 0 0
10:35 pm 22:35 Cloudy 32 0.2 30 -1 92 92 S 12 19 30.24 1024 10 16.0934 0 0
10:55 pm 22:55 Cloudy 32 0.1 30 -1 92 92 S 8 13 30.24 1024 10 16.0934 0 0
11:15 pm 23:15 Cloudy 32 0.1 31 -0.7 94 94 S 8 13 30.21 1023 10 16.0934 0 0
11:35 pm 23:35 Cloudy 32 0.1 31 -0.6 95 95 S 9 15 30.21 1023 10 16.0934 0 0
11:55 pm 23:55 Cloudy 32 0.2 31 -0.8 93 93 S 9 15 30.21 1023 10 16.0934 0 0

Powered by AerisWeather